Location: Beekmeers
(50.8953°N, 3.6968°E)
Time: 17:01:44
(UTC+00:00)

H-2A R/B - Pass Details

Date: 09 August 2024
Orbit: 566 x 633 km, 98.4° (Epoch: 06 September)

Event Time Altitude Azimuth Distance (km) Brightness Sun altitude
Rises 23:50:18 0° 19° (NNE) 2,837 6.7 -23.6°
Reaches altitude 10° 23:52:31 10° 24° (NNE) 1,942 5.5 -23.6°
Enters shadow 23:56:30 50° 94° (E) 776 2.4 -23.6°
